QPF
0.00 0.00 0.00 0.00 0.00 0.00 0.00 0.01 0.01 0.01 0.00 0.01 0.01 0.01 0.01 0.01 0.01 0.01 0.03 0.03 0.03 0.04 0.04 0.04 0.03 0.02 0.03 0.02 0.02 0.02 0.02 0.01 0.03 0.06 0.06 0.06 0.05 0.05 0.06 0.06 0.05 0.06 0.10
0.00 0.00 0.00 0.00 0.00 0.00 0.00 0.00 0.00 0.00 0.00 0.00 0.00 0.00 0.00 0.00 0.02 0.02 0.05 0.05 0.04 0.05 0.04 0.04 0.03 0.02 0.02 0.02 0.02 0.03 0.02 0.02 0.03 0.07 0.07 0.06 0.05 0.05 0.07 0.07 0.06 0.07 0.07
0.00 0.00 0.00 0.00 0.00 0.00 0.00 0.00 0.00 0.01 0.01 0.00 0.00 0.00 0.00 0.00 0.01 0.03 0.05 0.05 0.05 0.05 0.04 0.03 0.03 0.02 0.02 0.02 0.02 0.02 0.01 0.02 0.03 0.04 0.05 0.04 0.03 0.04 0.04 0.04 0.05 0.10 0.08
0.00 0.00 0.00 0.00 0.00 0.00 0.00 0.00 0.01 0.03 0.03 0.02 0.01 0.00 0.00 0.00 0.01 0.02 0.04 0.04 0.05 0.05 0.05 0.03 0.03 0.02 0.02 0.02 0.02 0.02 0.01 0.01 0.02 0.02 0.02 0.04 0.04 0.03 0.02 0.03 0.03 0.03 0.03
0.00 0.00 0.00 0.00 0.00 0.00 0.00 0.01 0.03 0.04 0.04 0.03 0.01 0.01 0.01 0.01 0.01 0.01 0.02 0.03 0.04 0.05 0.05 0.04 0.04 0.03 0.03 0.03 0.02 0.03 0.02 0.01 0.01 0.02 0.02 0.04 0.05 0.03 0.02 0.03 0.02 0.02 0.02
0.00 0.00 0.00 0.00 0.00 0.00 0.01 0.02 0.05 0.06 0.05 0.03 0.02 0.01 0.01 0.01 0.01 0.01 0.01 0.02 0.03 0.04 0.04 0.04 0.04 0.04 0.03 0.03 0.03 0.03 0.02 0.02 0.01 0.02 0.02 0.02 0.03 0.03 0.03 0.03 0.03 0.03 0.04
0.00 0.01 0.00 0.00 0.00 0.01 0.02 0.06 0.07 0.06 0.04 0.03 0.02 0.01 0.01 0.02 0.01 0.01 0.01 0.01 0.02 0.02 0.02 0.02 0.03 0.04 0.03 0.02 0.03 0.04 0.03 0.03 0.03 0.03 0.02 0.02 0.01 0.02 0.03 0.02 0.03 0.03 0.03
0.01 0.00 0.00 0.01 0.01 0.00 0.01 0.03 0.05 0.07 0.07 0.05 0.02 0.02 0.02 0.01 0.01 0.01 0.01 0.01 0.02 0.02 0.01 0.02 0.03 0.03 0.02 0.02 0.03 0.03 0.02 0.02 0.03 0.03 0.03 0.02 0.02 0.03 0.04 0.03 0.03 0.04 0.04
0.01 0.01 0.01 0.02 0.01 0.01 0.02 0.04 0.06 0.05 0.05 0.05 0.02 0.02 0.02 0.01 0.01 0.01 0.01 0.01 0.02 0.03 0.03 0.03 0.03 0.03 0.03 0.03 0.02 0.02 0.02 0.03 0.03 0.03 0.03 0.03 0.02 0.03 0.05 0.04 0.04 0.04 0.03
0.02 0.03 0.04 0.05 0.04 0.02 0.02 0.03 0.02 0.02 0.04 0.05 0.03 0.01 0.02 0.01 0.01 0.01 0.01 0.01 0.03 0.05 0.05 0.05 0.04 0.04 0.03 0.02 0.02 0.02 0.02 0.05 0.05 0.04 0.04 0.02 0.02 0.03 0.04 0.04 0.03 0.03 0.04
0.03 0.04 0.04 0.07 0.04 0.04 0.03 0.01 0.01 0.01 0.01 0.01 0.01 0.01 0.02 0.03 0.02 0.02 0.02 0.02 0.03 0.04 0.04 0.04 0.03 0.03 0.02 0.01 0.02 0.02 0.03 0.04 0.04 0.04 0.03 0.02 0.03 0.04 0.04 0.04 0.03 0.03 0.04
0.04 0.04 0.04 0.05 0.06 0.09 0.08 0.03 0.02 0.01 0.01 0.00 0.01 0.01 0.02 0.03 0.03 0.03 0.03 0.02 0.03 0.03 0.04 0.04 0.03 0.02 0.02 0.02 0.02 0.03 0.03 0.03 0.03 0.03 0.03 0.03 0.04 0.04 0.04 0.05 0.04 0.04 0.04
0.04 0.05 0.05 0.04 0.05 0.09 0.12 0.07 0.02 0.01 0.01 0.01 0.01 0.02 0.02 0.03 0.03 0.03 0.03 0.03 0.05 0.07 0.07 0.05 0.04 0.04 0.03 0.04 0.03 0.03 0.02 0.02 0.03 0.04 0.05 0.05 0.05 0.03 0.05 0.06 0.04 0.04 0.04
0.05 0.07 0.06 0.07 0.11 0.13 0.13 0.06 0.02 0.02 0.02 0.02 0.02 0.02 0.03 0.04 0.04 0.04 0.06 0.09 0.14 0.13 0.09 0.06 0.06 0.07 0.06 0.05 0.05 0.05 0.04 0.05 0.05 0.05 0.06 0.08 0.07 0.06 0.07 0.06 0.05 0.06 0.06
0.05 0.09 0.09 0.11 0.18 0.15 0.09 0.07 0.05 0.03 0.02 0.02 0.02 0.03 0.06 0.07 0.06 0.04 0.06 0.12 0.09 0.06 0.05 0.05 0.06 0.08 0.08 0.07 0.08 0.09 0.09 0.07 0.07 0.07 0.07 0.07 0.06 0.05 0.05 0.04 0.05 0.05 0.05
0.04 0.05 0.09 0.14 0.19 0.14 0.10 0.11 0.09 0.07 0.05 0.03 0.03 0.04 0.05 0.05 0.05 0.03 0.04 0.08 0.06 0.04 0.04 0.05 0.05 0.08 0.09 0.10 0.11 0.12 0.09 0.07 0.06 0.07 0.07 0.07 0.06 0.06 0.05 0.04 0.04 0.05 0.05
0.07 0.06 0.06 0.09 0.13 0.15 0.16 0.12 0.07 0.07 0.07 0.06 0.04 0.04 0.05 0.05 0.04 0.03 0.03 0.05 0.03 0.03 0.04 0.05 0.06 0.07 0.12 0.15 0.15 0.11 0.08 0.06 0.06 0.07 0.07 0.06 0.05 0.06 0.05 0.04 0.06 0.05 0.05
0.05 0.06 0.06 0.06 0.08 0.09 0.09 0.09 0.11 0.10 0.09 0.08 0.05 0.04 0.03 0.03 0.03 0.05 0.04 0.05 0.05 0.04 0.04 0.05 0.07 0.09 0.13 0.15 0.10 0.07 0.06 0.07 0.07 0.06 0.06 0.06 0.04 0.04 0.04 0.03 0.03 0.04 0.04
0.02 0.04 0.06 0.08 0.08 0.08 0.09 0.08 0.09 0.10 0.10 0.09 0.06 0.05 0.05 0.05 0.05 0.06 0.06 0.08 0.08 0.07 0.07 0.08 0.07 0.06 0.07 0.08 0.06 0.04 0.03 0.04 0.05 0.05 0.04 0.05 0.05 0.05 0.05 0.04 0.03 0.02 0.02
0.04 0.07 0.09 0.07 0.07 0.11 0.08 0.07 0.09 0.10 0.10 0.07 0.05 0.04 0.05 0.05 0.07 0.12 0.14 0.13 0.09 0.06 0.05 0.05 0.04 0.03 0.04 0.06 0.05 0.03 0.02 0.03 0.04 0.05 0.04 0.05 0.06 0.06 0.04 0.03 0.03 0.01 0.01
0.04 0.03 0.03 0.03 0.04 0.05 0.06 0.07 0.07 0.07 0.06 0.05 0.03 0.04 0.04 0.06 0.08 0.10 0.10 0.07 0.06 0.06 0.05 0.05 0.05 0.04 0.04 0.05 0.04 0.03 0.03 0.02 0.03 0.03 0.03 0.03 0.03 0.02 0.02 0.02 0.02 0.01 0.02
0.02 0.02 0.01 0.01 0.01 0.02 0.04 0.05 0.05 0.03 0.03 0.03 0.03 0.03 0.05 0.06 0.06 0.06 0.05 0.04 0.04 0.05 0.05 0.05 0.04 0.04 0.04 0.03 0.03 0.03 0.03 0.02 0.02 0.02 0.02 0.03 0.02 0.03 0.02 0.01 0.02 0.02 0.03
0.02 0.02 0.02 0.01 0.02 0.02 0.03 0.05 0.04 0.03 0.02 0.02 0.02 0.02 0.03 0.03 0.03 0.03 0.03 0.02 0.03 0.03 0.03 0.04 0.04 0.04 0.03 0.02 0.03 0.03 0.03 0.03 0.02 0.02 0.03 0.03 0.02 0.02 0.02 0.02 0.02 0.01 0.02
0.01 0.01 0.02 0.02 0.03 0.04 0.05 0.05 0.05 0.05 0.04 0.03 0.03 0.03 0.03 0.03 0.03 0.02 0.02 0.02 0.02 0.03 0.03 0.04 0.05 0.05 0.03 0.03 0.03 0.03 0.03 0.04 0.04 0.05 0.04 0.03 0.02 0.02 0.02 0.02 0.01 0.01 0.01
0.02 0.03 0.04 0.05 0.07 0.06 0.05 0.04 0.05 0.04 0.05 0.04 0.04 0.05 0.04 0.03 0.04 0.04 0.03 0.03 0.02 0.02 0.02 0.03 0.04 0.04 0.04 0.04 0.03 0.03 0.03 0.03 0.04 0.03 0.02 0.01 0.01 0.01 0.01 0.01 0.01 0.01 0.01
0.05 0.08 0.09 0.09 0.08 0.05 0.04 0.04 0.05 0.05 0.05 0.05 0.05 0.06 0.05 0.04 0.04 0.03 0.02 0.02 0.01 0.02 0.03 0.04 0.05 0.05 0.04 0.03 0.02 0.02 0.02 0.02 0.03 0.02 0.01 0.01 0.01 0.01 0.01 0.01 0.02 0.02 0.02
MSLP
1013.71 1013.97 1014.17 1014.26 1014.22 1014.08 1013.88 1013.69 1013.57 1013.55 1013.62 1013.77 1013.95 1014.08 1014.13 1014.07 1013.89 1013.64 1013.36 1013.11 1012.94 1012.88 1012.94 1013.11 1013.33 1013.58 1013.80 1013.97 1014.07 1014.11 1014.12 1014.10 1014.09 1014.10 1014.12 1014.14 1014.15 1014.14 1014.08 1014.00 1013.92 1013.85 1013.82
1013.53 1013.83 1014.08 1014.21 1014.20 1014.08 1013.90 1013.71 1013.60 1013.59 1013.70 1013.88 1014.08 1014.24 1014.30 1014.22 1014.01 1013.71 1013.37 1013.06 1012.85 1012.76 1012.81 1012.99 1013.24 1013.53 1013.78 1013.98 1014.09 1014.14 1014.13 1014.10 1014.08 1014.08 1014.10 1014.13 1014.15 1014.15 1014.10 1014.00 1013.88 1013.76 1013.68
1013.37 1013.68 1013.97 1014.15 1014.20 1014.12 1013.96 1013.79 1013.69 1013.69 1013.80 1014.00 1014.21 1014.38 1014.45 1014.37 1014.15 1013.83 1013.46 1013.13 1012.88 1012.77 1012.81 1012.99 1013.24 1013.53 1013.78 1013.98 1014.09 1014.12 1014.10 1014.06 1014.04 1014.05 1014.09 1014.15 1014.21 1014.23 1014.20 1014.11 1013.98 1013.82 1013.68
1013.27 1013.58 1013.90 1014.13 1014.23 1014.20 1014.08 1013.94 1013.84 1013.83 1013.93 1014.11 1014.31 1014.48 1014.54 1014.47 1014.26 1013.95 1013.58 1013.24 1012.99 1012.86 1012.88 1013.02 1013.25 1013.51 1013.74 1013.90 1013.99 1014.01 1013.98 1013.95 1013.94 1013.97 1014.05 1014.16 1014.27 1014.35 1014.36 1014.30 1014.17 1013.99 1013.79
1013.30 1013.59 1013.92 1014.20 1014.35 1014.36 1014.28 1014.14 1014.04 1014.00 1014.06 1014.20 1014.37 1014.51 1014.57 1014.51 1014.31 1014.02 1013.67 1013.34 1013.08 1012.94 1012.93 1013.03 1013.21 1013.41 1013.59 1013.72 1013.78 1013.78 1013.75 1013.73 1013.76 1013.83 1013.96 1014.13 1014.30 1014.44 1014.50 1014.48 1014.36 1014.18 1013.96
1013.46 1013.73 1014.07 1014.37 1014.56 1014.62 1014.55 1014.42 1014.29 1014.20 1014.20 1014.27 1014.38 1014.49 1014.52 1014.46 1014.29 1014.03 1013.71 1013.40 1013.15 1012.98 1012.93 1012.98 1013.09 1013.23 1013.35 1013.43 1013.46 1013.45 1013.44 1013.44 1013.50 1013.62 1013.81 1014.03 1014.25 1014.44 1014.55 1014.57 1014.49 1014.32 1014.10
1013.77 1014.01 1014.35 1014.67 1014.88 1014.96 1014.90 1014.76 1014.59 1014.44 1014.36 1014.36 1014.39 1014.44 1014.45 1014.39 1014.23 1014.00 1013.72 1013.43 1013.18 1013.00 1012.90 1012.89 1012.93 1013.00 1013.06 1013.10 1013.10 1013.09 1013.09 1013.12 1013.21 1013.37 1013.59 1013.84 1014.10 1014.32 1014.47 1014.52 1014.47 1014.33 1014.13
1014.18 1014.41 1014.74 1015.06 1015.29 1015.38 1015.32 1015.16 1014.94 1014.73 1014.57 1014.48 1014.44 1014.43 1014.40 1014.33 1014.19 1013.99 1013.74 1013.47 1013.23 1013.03 1012.89 1012.82 1012.79 1012.80 1012.80 1012.80 1012.79 1012.78 1012.79 1012.84 1012.94 1013.11 1013.33 1013.59 1013.84 1014.06 1014.22 1014.28 1014.26 1014.16 1014.00
1014.66 1014.88 1015.21 1015.53 1015.76 1015.84 1015.78 1015.59 1015.34 1015.07 1014.84 1014.68 1014.57 1014.51 1014.45 1014.38 1014.25 1014.07 1013.85 1013.60 1013.36 1013.14 1012.97 1012.85 1012.77 1012.72 1012.68 1012.65 1012.63 1012.61 1012.62 1012.67 1012.76 1012.91 1013.09 1013.30 1013.51 1013.69 1013.82 1013.88 1013.87 1013.81 1013.69
1015.15 1015.38 1015.71 1016.02 1016.24 1016.31 1016.24 1016.04 1015.76 1015.46 1015.19 1014.97 1014.82 1014.72 1014.65 1014.57 1014.45 1014.30 1014.10 1013.87 1013.63 1013.40 1013.20 1013.04 1012.91 1012.82 1012.75 1012.70 1012.66 1012.64 1012.64 1012.66 1012.72 1012.80 1012.92 1013.04 1013.16 1013.26 1013.32 1013.35 1013.35 1013.31 1013.25
1015.62 1015.87 1016.18 1016.48 1016.68 1016.74 1016.66 1016.46 1016.17 1015.87 1015.59 1015.36 1015.20 1015.09 1015.01 1014.93 1014.82 1014.68 1014.50 1014.28 1014.04 1013.80 1013.58 1013.39 1013.24 1013.12 1013.02 1012.95 1012.90 1012.86 1012.84 1012.82 1012.81 1012.82 1012.82 1012.83 1012.84 1012.83 1012.81 1012.79 1012.77 1012.75 1012.73
1016.05 1016.31 1016.61 1016.87 1017.04 1017.09 1017.00 1016.81 1016.55 1016.28 1016.02 1015.81 1015.66 1015.56 1015.48 1015.41 1015.31 1015.18 1015.00 1014.79 1014.54 1014.30 1014.06 1013.85 1013.67 1013.53 1013.42 1013.34 1013.27 1013.21 1013.15 1013.09 1013.01 1012.92 1012.82 1012.70 1012.58 1012.47 1012.36 1012.28 1012.23 1012.21 1012.23
1016.45 1016.70 1016.95 1017.17 1017.30 1017.32 1017.24 1017.08 1016.86 1016.64 1016.43 1016.27 1016.15 1016.07 1016.01 1015.94 1015.84 1015.70 1015.52 1015.29 1015.04 1014.78 1014.53 1014.30 1014.11 1013.95 1013.83 1013.74 1013.66 1013.58 1013.49 1013.38 1013.23 1013.06 1012.86 1012.64 1012.42 1012.20 1012.02 1011.88 1011.80 1011.78 1011.82
1016.80 1017.02 1017.21 1017.37 1017.45 1017.45 1017.37 1017.24 1017.08 1016.92 1016.78 1016.68 1016.60 1016.55 1016.49 1016.42 1016.31 1016.15 1015.95 1015.70 1015.42 1015.14 1014.87 1014.63 1014.43 1014.26 1014.14 1014.04 1013.95 1013.85 1013.74 1013.59 1013.40 1013.17 1012.90 1012.61 1012.32 1012.04 1011.81 1011.63 1011.53 1011.50 1011.54
1017.13 1017.28 1017.40 1017.48 1017.50 1017.47 1017.40 1017.31 1017.21 1017.12 1017.05 1017.00 1016.97 1016.93 1016.87 1016.78 1016.64 1016.44 1016.20 1015.92 1015.61 1015.31 1015.02 1014.77 1014.55 1014.38 1014.25 1014.14 1014.05 1013.95 1013.82 1013.66 1013.45 1013.19 1012.90 1012.58 1012.26 1011.96 1011.70 1011.51 1011.39 1011.35 1011.38
1017.42 1017.49 1017.53 1017.52 1017.49 1017.44 1017.38 1017.32 1017.28 1017.25 1017.24 1017.23 1017.21 1017.17 1017.10 1016.97 1016.78 1016.53 1016.24 1015.92 1015.59 1015.26 1014.95 1014.69 1014.47 1014.29 1014.16 1014.05 1013.95 1013.85 1013.72 1013.56 1013.35 1013.10 1012.82 1012.51 1012.20 1011.91 1011.67 1011.48 1011.36 1011.31 1011.31
1017.67 1017.67 1017.62 1017.55 1017.47 1017.40 1017.35 1017.32 1017.32 1017.34 1017.36 1017.37 1017.36 1017.30 1017.18 1017.00 1016.75 1016.45 1016.11 1015.75 1015.39 1015.05 1014.73 1014.46 1014.24 1014.07 1013.93 1013.81 1013.72 1013.61 1013.49 1013.33 1013.14 1012.92 1012.66 1012.39 1012.12 1011.87 1011.65 1011.47 1011.35 1011.28 1011.26
1017.90 1017.83 1017.72 1017.61 1017.50 1017.42 1017.38 1017.37 1017.40 1017.44 1017.47 1017.47 1017.43 1017.33 1017.16 1016.91 1016.61 1016.26 1015.88 1015.50 1015.13 1014.78 1014.47 1014.21 1013.99 1013.82 1013.68 1013.56 1013.46 1013.35 1013.22 1013.07 1012.90 1012.70 1012.47 1012.24 1012.00 1011.78 1011.58 1011.42 1011.29 1011.20 1011.13
1018.12 1018.00 1017.87 1017.73 1017.61 1017.53 1017.50 1017.51 1017.54 1017.58 1017.60 1017.57 1017.48 1017.32 1017.09 1016.79 1016.44 1016.06 1015.66 1015.28 1014.91 1014.59 1014.30 1014.07 1013.87 1013.71 1013.57 1013.44 1013.32 1013.19 1013.05 1012.89 1012.71 1012.51 1012.30 1012.07 1011.85 1011.64 1011.45 1011.27 1011.12 1010.99 1010.87
1018.33 1018.22 1018.07 1017.94 1017.83 1017.76 1017.74 1017.75 1017.77 1017.78 1017.76 1017.68 1017.53 1017.31 1017.03 1016.68 1016.31 1015.91 1015.53 1015.17 1014.84 1014.57 1014.33 1014.13 1013.97 1013.82 1013.68 1013.55 1013.40 1013.25 1013.07 1012.87 1012.66 1012.43 1012.19 1011.95 1011.70 1011.46 1011.23 1011.02 1010.82 1010.63 1010.45
1018.58 1018.48 1018.36 1018.25 1018.16 1018.10 1018.07 1018.07 1018.05 1018.02 1017.94 1017.79 1017.58 1017.31 1016.98 1016.61 1016.23 1015.86 1015.52 1015.22 1014.96 1014.75 1014.58 1014.44 1014.32 1014.20 1014.07 1013.92 1013.75 1013.55 1013.32 1013.07 1012.80 1012.50 1012.20 1011.89 1011.58 1011.28 1010.98 1010.69 1010.41 1010.14 1009.89
1018.88 1018.81 1018.73 1018.64 1018.57 1018.51 1018.47 1018.42 1018.35 1018.25 1018.09 1017.88 1017.61 1017.29 1016.93 1016.57 1016.22 1015.90 1015.62 1015.40 1015.24 1015.12 1015.03 1014.96 1014.89 1014.80 1014.68 1014.52 1014.32 1014.07 1013.79 1013.46 1013.11 1012.74 1012.35 1011.94 1011.53 1011.13 1010.72 1010.34 1009.96 1009.60 1009.26
1019.22 1019.19 1019.14 1019.08 1019.01 1018.93 1018.85 1018.74 1018.60 1018.42 1018.19 1017.90 1017.58 1017.22 1016.87 1016.53 1016.22 1015.98 1015.79 1015.67 1015.61 1015.59 1015.59 1015.59 1015.58 1015.52 1015.41 1015.25 1015.02 1014.74 1014.39 1014.00 1013.57 1013.11 1012.62 1012.11 1011.59 1011.07 1010.56 1010.05 1009.56 1009.10 1008.67
1019.62 1019.61 1019.58 1019.51 1019.43 1019.32 1019.17 1018.99 1018.77 1018.49 1018.18 1017.83 1017.46 1017.10 1016.76 1016.46 1016.23 1016.07 1015.99 1015.97 1016.01 1016.08 1016.17 1016.23 1016.26 1016.24 1016.15 1015.99 1015.74 1015.43 1015.05 1014.61 1014.12 1013.58 1013.01 1012.41 1011.79 1011.16 1010.53 1009.92 1009.32 1008.76 1008.23
1020.04 1020.05 1020.01 1019.93 1019.80 1019.63 1019.41 1019.14 1018.82 1018.46 1018.07 1017.67 1017.29 1016.93 1016.62 1016.39 1016.23 1016.17 1016.18 1016.26 1016.39 1016.53 1016.68 1016.80 1016.86 1016.86 1016.79 1016.63 1016.39 1016.07 1015.67 1015.21 1014.68 1014.11 1013.48 1012.82 1012.13 1011.43 1010.72 1010.01 1009.32 1008.66 1008.04
1020.47 1020.47 1020.42 1020.30 1020.12 1019.88 1019.57 1019.21 1018.81 1018.37 1017.93 1017.49 1017.10 1016.77 1016.51 1016.34 1016.27 1016.29 1016.39 1016.54 1016.73 1016.93 1017.11 1017.26 1017.34 1017.35 1017.28 1017.13 1016.90 1016.59 1016.20 1015.75 1015.23 1014.65 1014.02 1013.34 1012.62 1011.88 1011.12 1010.35 1009.60 1008.86 1008.16
Thickness
5814 5815 5814 5812 5809 5806 5803 5800 5798 5796 5795 5792 5789 5786 5785 5786 5786 5786 5786 5785 5784 5782 5781 5779 5777 5776 5773 5771 5770 5767 5764 5761 5760 5756 5751 5751 5752 5752 5751 5749 5747 5745 5743
5814 5814 5813 5812 5810 5807 5805 5803 5800 5799 5797 5795 5793 5791 5788 5787 5787 5787 5787 5786 5785 5783 5782 5780 5778 5776 5774 5771 5769 5767 5762 5760 5760 5753 5745 5740 5741 5746 5749 5747 5746 5744 5741
5817 5816 5815 5813 5812 5809 5808 5807 5803 5800 5798 5797 5794 5792 5789 5787 5786 5786 5786 5787 5786 5784 5783 5781 5779 5777 5774 5771 5769 5767 5763 5758 5757 5756 5748 5738 5734 5737 5741 5743 5743 5741 5739
5825 5822 5819 5817 5816 5814 5813 5810 5806 5803 5800 5798 5794 5790 5786 5783 5785 5786 5787 5787 5787 5786 5784 5782 5780 5777 5775 5772 5770 5768 5765 5760 5754 5754 5753 5749 5745 5735 5732 5736 5738 5738 5736
5830 5827 5825 5823 5821 5819 5816 5813 5809 5805 5803 5801 5797 5792 5789 5788 5787 5787 5787 5787 5787 5786 5784 5782 5780 5777 5774 5772 5770 5767 5764 5761 5756 5752 5750 5747 5744 5741 5733 5727 5729 5731 5732
5834 5832 5831 5827 5823 5821 5818 5815 5810 5806 5804 5802 5799 5795 5791 5789 5787 5786 5785 5785 5785 5784 5783 5782 5780 5777 5774 5772 5769 5767 5764 5760 5757 5754 5751 5747 5742 5738 5734 5728 5726 5725 5727
5836 5833 5829 5826 5823 5821 5819 5816 5812 5808 5806 5802 5799 5797 5794 5792 5789 5787 5786 5784 5783 5782 5782 5782 5779 5777 5775 5772 5769 5766 5763 5760 5757 5754 5751 5749 5746 5743 5737 5730 5725 5722 5722
5838 5836 5834 5831 5827 5825 5821 5817 5813 5810 5808 5804 5801 5800 5798 5795 5793 5791 5789 5787 5785 5784 5783 5782 5780 5777 5775 5772 5768 5765 5762 5759 5756 5754 5751 5748 5747 5744 5740 5733 5726 5719 5717
5839 5837 5835 5833 5830 5827 5824 5821 5816 5811 5809 5807 5805 5802 5799 5797 5795 5793 5792 5789 5787 5785 5783 5781 5779 5776 5774 5771 5767 5763 5761 5758 5755 5752 5750 5747 5746 5744 5741 5737 5731 5722 5713
5838 5837 5835 5833 5832 5829 5826 5822 5819 5815 5811 5809 5806 5804 5800 5798 5796 5794 5791 5789 5787 5785 5783 5780 5777 5774 5772 5769 5765 5762 5760 5756 5753 5751 5748 5746 5744 5742 5739 5736 5732 5727 5720
5833 5834 5834 5834 5833 5830 5826 5821 5818 5815 5812 5810 5807 5804 5801 5799 5797 5794 5791 5789 5786 5784 5781 5779 5776 5773 5770 5767 5764 5760 5758 5754 5751 5750 5747 5744 5742 5739 5737 5734 5730 5726 5721
5831 5832 5832 5830 5829 5826 5824 5821 5818 5815 5813 5812 5808 5804 5801 5799 5796 5793 5791 5789 5786 5783 5780 5777 5774 5770 5767 5765 5762 5759 5756 5752 5749 5746 5744 5741 5740 5737 5734 5731 5727 5724 5720
5827 5827 5828 5826 5825 5824 5823 5822 5819 5817 5815 5812 5807 5803 5799 5796 5794 5793 5791 5788 5784 5781 5778 5775 5772 5769 5766 5763 5760 5757 5753 5750 5747 5745 5741 5738 5736 5733 5731 5728 5725 5722 5719
5823 5822 5821 5820 5820 5821 5821 5821 5820 5819 5815 5811 5806 5801 5798 5795 5793 5791 5789 5786 5783 5778 5775 5773 5770 5767 5764 5760 5757 5753 5750 5747 5744 5742 5740 5737 5734 5732 5729 5726 5722 5719 5714
5818 5818 5817 5816 5816 5816 5816 5817 5815 5815 5813 5808 5804 5801 5798 5795 5791 5788 5786 5783 5780 5778 5774 5770 5767 5764 5761 5758 5754 5751 5747 5744 5741 5738 5737 5735 5733 5731 5727 5724 5720 5715 5710
5816 5815 5815 5813 5814 5813 5811 5812 5810 5810 5808 5804 5801 5799 5795 5791 5788 5785 5782 5779 5776 5774 5771 5767 5763 5759 5758 5755 5752 5748 5743 5740 5737 5734 5732 5731 5729 5727 5724 5721 5718 5714 5708
5812 5810 5811 5811 5811 5810 5810 5808 5808 5807 5803 5800 5797 5795 5792 5788 5785 5783 5778 5774 5771 5768 5765 5762 5758 5754 5752 5751 5748 5744 5739 5736 5733 5730 5727 5725 5724 5721 5717 5715 5713 5710 5707
5809 5808 5808 5808 5808 5808 5807 5805 5805 5802 5799 5795 5792 5790 5788 5784 5781 5778 5774 5771 5768 5764 5760 5757 5754 5750 5748 5745 5742 5738 5734 5731 5728 5725 5722 5718 5715 5713 5710 5707 5704 5702 5701
5807 5806 5805 5804 5802 5802 5801 5798 5797 5795 5792 5789 5786 5785 5783 5779 5776 5772 5769 5767 5763 5760 5756 5752 5748 5744 5741 5739 5736 5732 5728 5724 5720 5718 5716 5712 5709 5707 5704 5700 5697 5695 5694
5801 5800 5800 5799 5796 5795 5794 5791 5787 5786 5784 5784 5783 5781 5778 5775 5771 5768 5765 5762 5758 5754 5750 5746 5742 5738 5735 5732 5729 5726 5721 5716 5713 5710 5708 5706 5704 5701 5698 5694 5690 5688 5687
5792 5793 5792 5789 5788 5788 5786 5781 5778 5778 5779 5778 5776 5774 5771 5769 5767 5764 5760 5756 5752 5747 5742 5739 5736 5733 5729 5726 5722 5718 5714 5710 5706 5702 5700 5699 5697 5695 5692 5689 5686 5684 5682
5782 5783 5780 5779 5780 5781 5778 5773 5770 5772 5772 5770 5767 5765 5763 5761 5759 5756 5752 5748 5743 5738 5735 5731 5728 5725 5721 5718 5714 5710 5707 5705 5700 5697 5695 5693 5691 5688 5685 5683 5681 5678 5675
5771 5772 5771 5768 5768 5768 5767 5763 5762 5763 5761 5759 5756 5755 5753 5751 5749 5745 5742 5738 5734 5730 5726 5723 5718 5715 5712 5710 5707 5703 5700 5697 5693 5691 5689 5687 5684 5681 5678 5676 5674 5671 5667
5759 5760 5760 5757 5756 5757 5756 5754 5755 5754 5751 5748 5746 5745 5742 5739 5738 5735 5733 5729 5725 5721 5718 5714 5710 5707 5703 5701 5698 5695 5691 5688 5684 5682 5681 5679 5676 5673 5671 5669 5666 5664 5661
5748 5749 5748 5746 5746 5747 5746 5746 5746 5746 5742 5739 5736 5733 5731 5728 5725 5723 5720 5719 5718 5716 5712 5708 5705 5699 5696 5695 5692 5687 5684 5680 5677 5673 5670 5667 5665 5663 5662 5660 5658 5656 5653
5737 5737 5737 5736 5736 5737 5736 5737 5737 5735 5731 5727 5725 5723 5720 5717 5714 5711 5708 5708 5707 5706 5704 5702 5698 5695 5692 5689 5685 5680 5677 5674 5669 5663 5660 5658 5656 5655 5653 5652 5650 5648 5646